| time (UTC) | temp F | wind direction | speed knots | gust knots | rain 1hr in | rain 24hr in | rain mn in | humidity % | barometer mb |
| 20260505213008 | 51 | 352 | 1.7 | 7.8 | 0.00 | 0.00 | 0.00 | 71 | 1014.1 |
| 20260505211511 | 51 | 334 | 2.6 | 7.0 | 0.00 | 0.00 | 0.00 | 70 | 1014.0 |
| 20260505210010 | 51 | 5 | 2.6 | 7.8 | 0.00 | 0.00 | 0.00 | 70 | 1014.0 |
| 20260505204511 | 52 | 24 | 3.5 | 7.0 | 0.00 | 0.00 | 0.00 | 69 | 1014.1 |
| 20260505203010 | 52 | 328 | 2.6 | 6.1 | 0.00 | 0.00 | 0.00 | 69 | 1014.1 |
| 20260505201512 | 52 | 352 | 2.6 | 6.1 | 0.00 | 0.00 | 0.00 | 69 | 1013.8 |
| 20260505200015 | 52 | 351 | 2.6 | 7.8 | 0.00 | 0.00 | 0.00 | 68 | 1013.8 |
| 20260505194527 | 53 | 30 | 2.6 | 7.8 | 0.00 | 0.00 | 0.00 | 67 | 1013.6 |
| 20260505193031 | 53 | 331 | 2.6 | 9.6 | 0.00 | 0.00 | 0.00 | 65 | 1013.5 |
| 20260505191517 | 54 | 313 | 4.3 | 8.7 | 0.00 | 0.00 | 0.00 | 62 | 1013.5 |
| 20260505190017 | 55 | 12 | 4.3 | 8.7 | 0.00 | 0.00 | 0.00 | 60 | 1013.3 |
| 20260505184516 | 56 | 346 | 5.2 | 9.6 | 0.00 | 0.00 | 0.00 | 59 | 1013.3 |
| 20260505183015 | 57 | 329 | 2.6 | 9.6 | 0.00 | 0.00 | 0.00 | 58 | 1013.1 |
| 20260505181517 | 58 | 58 | 4.3 | 11.3 | 0.00 | 0.00 | 0.00 | 56 | 1013.1 |
| 20260505180025 | 59 | 22 | 5.2 | 11.3 | 0.00 | 0.00 | 0.00 | 55 | 1013.1 |
| 20260505174529 | 60 | 329 | 3.5 | 11.3 | 0.00 | 0.00 | 0.00 | 55 | 1013.1 |
| 20260505173020 | 60 | 360 | 0.9 | 7.8 | 0.00 | 0.00 | 0.00 | 55 | 1013.2 |
| 20260505171517 | 59 | 9 | 2.6 | 9.6 | 0.00 | 0.00 | 0.00 | 55 | 1013.3 |
| 20260505170026 | 59 | 344 | 1.7 | 8.7 | 0.00 | 0.00 | 0.00 | 54 | 1013.3 |
| 20260505164520 | 59 | 314 | 5.2 | 10.4 | 0.00 | 0.00 | 0.00 | 55 | 1013.4 |
| 20260505163022 | 59 | 17 | 4.3 | 10.4 | 0.00 | 0.00 | 0.00 | 54 | 1013.4 |
| 20260505161502 | 60 | 9 | 3.5 | 9.6 | 0.00 | 0.00 | 0.00 | 52 | 1013.4 |
| 20260505153008 | 63 | 269 | 4.3 | 8.7 | 0.00 | 0.00 | 0.00 | 48 | 1013.2 |
| 20260505151512 | 61 | 323 | 4.3 | 10.4 | 0.00 | 0.00 | 0.00 | 52 | 1013.3 |
| 20260505124517 | 61 | 341 | 1.7 | 8.7 | 0.00 | 0.00 | 0.00 | 56 | 1013.8 |
| 20260505123004 | 63 | 352 | 1.7 | 7.8 | 0.00 | 0.00 | 0.00 | 53 | 1013.9 |
| 20260505121509 | 62 | 327 | 3.5 | 11.3 | 0.00 | 0.00 | 0.00 | 56 | 1014.0 |
| 20260505120010 | 63 | 79 | 3.5 | 13.0 | 0.00 | 0.00 | 0.00 | 52 | 1014.0 |
| 20260505114516 | 62 | 5 | 3.5 | 11.3 | 0.00 | 0.00 | 0.00 | 52 | 1014.0 |
| 20260505113031 | 61 | 352 | 6.1 | 12.2 | 0.00 | 0.00 | 0.00 | 53 | 1014.1 |
| 20260505111505 | 62 | 14 | 2.6 | 10.4 | 0.00 | 0.00 | 0.00 | 54 | 1014.3 |
| 20260505101526 | 58 | 46 | 3.5 | 9.6 | 0.00 | 0.00 | 0.00 | 60 | 1014.7 |
| 20260505100005 | 58 | 284 | 3.5 | 8.7 | 0.00 | 0.00 | 0.00 | 59 | 1014.7 |
| 20260505094510 | 56 | 352 | 2.6 | 13.0 | 0.00 | 0.00 | 0.00 | 61 | 1014.8 |
| 20260505093015 | 57 | 29 | 3.5 | 8.7 | 0.00 | 0.02 | 0.00 | 60 | 1014.7 |
| 20260505091520 | 57 | 352 | 2.6 | 11.3 | 0.00 | 0.02 | 0.00 | 63 | 1014.7 |
| 20260505090027 | 56 | 11 | 5.2 | 11.3 | 0.00 | 0.02 | 0.00 | 65 | 1014.7 |
| 20260505084515 | 55 | 5 | 3.5 | 7.8 | 0.00 | 0.02 | 0.00 | 67 | 1014.7 |
| 20260505083014 | 54 | 13 | 6.1 | 13.9 | 0.00 | 0.02 | 0.00 | 70 | 1014.7 |
| 20260505081523 | 54 | 44 | 2.6 | 12.2 | 0.00 | 0.02 | 0.00 | 71 | 1014.9 |
| 20260505080031 | 53 | 5 | 0.9 | 10.4 | 0.00 | 0.02 | 0.00 | 75 | 1015.1 |
| 20260505074524 | 53 | 324 | 3.5 | 8.7 | 0.00 | 0.02 | 0.00 | 74 | 1015.1 |
| 20260505073009 | 52 | 350 | 2.6 | 9.6 | 0.00 | 0.02 | 0.00 | 76 | 1015.1 |
| 20260505071512 | 50 | 352 | 1.7 | 8.7 | 0.00 | 0.02 | 0.00 | 77 | 1015.1 |
| 20260505070021 | 51 | 341 | 3.5 | 10.4 | 0.00 | 0.02 | 0.00 | 77 | 1015.1 |
| 20260505064533 | 49 | 24 | 0.9 | 6.1 | 0.00 | 0.02 | 0.00 | 82 | 1015.0 |
| 20260505063026 | 48 | 22 | 1.7 | 5.2 | 0.00 | 0.02 | 0.00 | 85 | 1015.0 |
| 20260505061525 | 48 | 352 | 1.7 | 5.2 | 0.00 | 0.02 | 0.00 | 88 | 1015.1 |
| 20260505060023 | 47 | 347 | 0.9 | 3.5 | 0.00 | 0.02 | 0.00 | 89 | 1015.0 |
| 20260505054521 | 45 | 26 | 0.9 | 3.5 | 0.00 | 0.02 | 0.00 | 90 | 1014.9 |
| 20260505053026 | 45 | 349 | 0.0 | 0.9 | 0.00 | 0.02 | 0.00 | 89 | 1015.0 |
| 20260505051528 | 44 | 17 | 0.0 | 1.7 | 0.00 | 0.02 | 0.00 | 89 | 1014.8 |
| 20260505041508 | 45 | 128 | 0.0 | 1.7 | 0.00 | 0.02 | 0.00 | 89 | 1015.2 |
| 20260505040013 | 45 | 28 | 0.0 | 0.9 | 0.00 | 0.02 | 0.00 | 88 | 1015.3 |
| 20260505034518 | 46 | 26 | 0.0 | 2.6 | 0.00 | 0.02 | 0.00 | 88 | 1015.1 |
| 20260505033020 | 46 | 346 | 1.7 | 2.6 | 0.00 | 0.02 | 0.00 | 88 | 1014.9 |
| 20260505031507 | 47 | 352 | 0.0 | 6.1 | 0.00 | 0.02 | 0.00 | 87 | 1014.9 |
| 20260505030012 | 47 | 5 | 1.7 | 8.7 | 0.00 | 0.02 | 0.00 | 87 | 1014.9 |
| 20260505024534 | 48 | 344 | 1.7 | 4.3 | 0.00 | 0.02 | 0.00 | 87 | 1015.0 |
| 20260505023020 | 49 | 341 | 1.7 | 4.3 | 0.00 | 0.02 | 0.00 | 86 | 1015.0 |
| 20260505021524 | 49 | 9 | 0.9 | 3.5 | 0.00 | 0.02 | 0.00 | 86 | 1015.2 |
| 20260505020007 | 50 | 336 | 0.9 | 2.6 | 0.00 | 0.02 | 0.00 | 86 | 1015.2 |
| 20260505014512 | 50 | 16 | 0.9 | 3.5 | 0.00 | 0.02 | 0.00 | 86 | 1015.3 |
| 20260505013023 | 50 | 352 | 0.0 | 1.7 | 0.00 | 0.02 | 0.00 | 86 | 1015.3 |
| 20260505011522 | 50 | 16 | 0.0 | 1.7 | 0.00 | 0.02 | 0.00 | 86 | 1015.4 |
| 20260505010024 | 50 | 345 | 0.0 | 1.7 | 0.00 | 0.02 | 0.00 | 86 | 1015.4 |
| 20260505004515 | 50 | 24 | 0.0 | 0.9 | 0.00 | 0.02 | 0.00 | 86 | 1015.6 |
| 20260505003016 | 50 | 40 | 0.0 | 1.7 | 0.00 | 0.02 | 0.00 | 85 | 1015.5 |
| 20260505001518 | 50 | 109 | 0.0 | 1.7 | 0.00 | 0.02 | 0.00 | 86 | 1015.6 |
| 20260505000031 | 50 | 51 | 0.0 | 1.7 | 0.00 | 0.02 | 0.00 | 85 | 1015.7 |
| 20260504234528 | 50 | 46 | 0.0 | 1.7 | 0.00 | 0.02 | 0.00 | 85 | 1015.8 |
| 20260504233015 | 50 | 32 | 0.9 | 1.7 | 0.00 | 0.02 | 0.00 | 85 | 1015.7 |
| 20260504231525 | 51 | 5 | 0.9 | 1.7 | 0.00 | 0.02 | 0.00 | 85 | 1015.8 |
| 20260504230023 | 50 | 352 | 0.0 | 2.6 | 0.00 | 0.02 | 0.00 | 85 | 1016.0 |
| 20260504224528 | 50 | 29 | 0.0 | 1.7 | 0.00 | 0.02 | 0.02 | 85 | 1015.9 |
| 20260504223028 | 50 | 164 | 0.0 | 2.6 | 0.00 | 0.02 | 0.02 | 84 | 1015.9 |
| 20260504221514 | 51 | 123 | 0.9 | 2.6 | 0.00 | 0.02 | 0.02 | 84 | 1015.9 |
| 20260504220022 | 51 | 5 | 0.0 | 1.7 | 0.00 | 0.02 | 0.02 | 84 | 1016.1 |
| 20260504214522 | 51 | 5 | 0.9 | 2.6 | 0.00 | 0.02 | 0.02 | 84 | 1015.9 |